Change the Weather History Date:

Sunday, June 8, 2014

  Actual Average Record
Temperature  
Mean Temperature 58 °F 56 °F  
Max Temperature 74 °F 69 °F 88 °F (1926)
Min Temperature 42 °F 44 °F 30 °F (1950)
Degree Days  
Heating Degree Days 7 9  
Month to date heating degree days 82 80  
Since 1 June heating degree days 82 80  
Since 1 July heating degree days 8672 8368  
Cooling Degree Days 0 0  
Month to date cooling degree days 0 0  
Year to date cooling degree days 0 2  
Since 1 June cooling degree days 0 0  
Growing Degree Days 7 (Base 50)    
Moisture  
Dew Point 33 °F    
Average Humidity 44    
Maximum Humidity 67    
Minimum Humidity 20    
Precipitation  
Precipitation 0.00 in 0.10 in 2.30 in (2002)
Month to date precipitation 0.18 0.79  
Year to date precipitation 5.56 4.43  
Snow  
Snow 0.00 in - - ()
Snow Depth 0.00 in    
Sea Level Pressure  
Sea Level Pressure 30.01 in    
Wind  
Wind Speed 8 mph (WSW)    
Max Wind Speed 20 mph    
Max Gust Speed 25 mph    
Visibility 10 miles    
Events      
T = Trace of Precipitation, MM = Missing Value Source: NWS Daily Summary

Daily Weather History Graph

Daily Weather History Graph

Search for Another Location

Airport or City:

Trip Planner

Search our weather history database for the weather conditions in past years. The results will help you decide how hot, cold, wet, or windy it might be!

Date:

Astronomy

Jun. 08, 2014 Rise Set
Actual Time 5:27 AM MDT 9:29 PM MDT
Civil Twilight 4:46 AM MDT 10:11 PM MDT
Nautical Twilight 3:48 AM MDT 11:09 PM MDT
Astronomical Twilight 2:08 AM MDT 12:52 AM MDT
Moon 4:31 PM MDT (6/8) 2:46 AM MDT (6/8)
Length of Visible Light 17h 24m
Length of Day
16h 01m
Waxing Gibbous, 77% of the Moon is Illuminated
Jun 8
Waxing Gibbous
Jun 12
Full
Jun 19
Last Quarter
Jun 27
New
Jul 5
First Quarter

Hourly Weather History & Observations

Time (MDT) Temp. Windchill Dew Point Humidity Pressure Visibility Wind Dir Wind Speed Gust Speed Precip Events Conditions
12:56 AM 46.9 °F - 33.1 °F 59% 30.08 in 10.0 mi SSW 4.6 mph - N/A   Clear
1:56 AM 48.9 °F - 32.0 °F 52% 30.07 in 10.0 mi South 6.9 mph - N/A   Clear
2:56 AM 45.0 °F 41.2 °F 32.0 °F 60% 30.07 in 10.0 mi SE 6.9 mph - N/A   Clear
3:56 AM 44.1 °F 39.5 °F 32.0 °F 63% 30.07 in 10.0 mi SE 8.1 mph - N/A   Clear
4:56 AM 42.1 °F 36.6 °F 32.0 °F 67% 30.07 in 10.0 mi SE 9.2 mph - N/A   Clear
5:56 AM 44.1 °F 41.5 °F 30.9 °F 60% 30.07 in 10.0 mi South 4.6 mph - N/A   Clear
6:56 AM 46.0 °F 43.1 °F 34.0 °F 63% 30.06 in 10.0 mi SSW 5.8 mph - N/A   Clear
7:56 AM 50.0 °F - 36.0 °F 59% 30.06 in 10.0 mi WSW 4.6 mph - N/A   Clear
8:56 AM 57.0 °F - 37.9 °F 49% 30.06 in 10.0 mi Calm Calm - N/A   Clear
9:56 AM 62.1 °F - 39.0 °F 43% 30.06 in 10.0 mi West 6.9 mph - N/A   Clear
11:56 AM 66.9 °F - 33.1 °F 28% 30.03 in 10.0 mi WNW 8.1 mph - N/A   Clear
12:56 PM 71.1 °F - 32.0 °F 24% 30.02 in 10.0 mi West 9.2 mph - N/A   Mostly Cloudy
1:56 PM 72.0 °F - 30.0 °F 21% 30.00 in 10.0 mi NW 12.7 mph - N/A   Clear
2:56 PM 70.0 °F - 27.0 °F 20% 30.00 in 10.0 mi Calm Calm - N/A   Scattered Clouds
3:56 PM 69.1 °F - 30.0 °F 23% 30.00 in 10.0 mi NNW 3.5 mph - N/A   Mostly Cloudy
4:56 PM 70.0 °F - 30.9 °F 24% 29.99 in 10.0 mi NW 9.2 mph - N/A   Overcast
5:56 PM 69.1 °F - 34.0 °F 27% 29.97 in 10.0 mi WNW 10.4 mph - N/A   Overcast
6:56 PM 71.1 °F - 32.0 °F 24% 29.95 in 10.0 mi West 12.7 mph 18.4 mph N/A   Overcast
7:56 PM 69.1 °F - 35.1 °F 29% 29.93 in 10.0 mi WSW 13.8 mph - N/A   Partly Cloudy
8:56 PM 62.1 °F - 37.0 °F 39% 29.93 in 10.0 mi WSW 9.2 mph - N/A   Clear
9:56 PM 60.1 °F - 36.0 °F 41% 29.92 in 10.0 mi West 11.5 mph - N/A   Clear
10:56 PM 55.0 °F - 37.0 °F 51% 29.91 in 10.0 mi WSW 11.5 mph - N/A   Clear
11:56 PM 55.0 °F - 37.0 °F 51% 29.90 in 10.0 mi WSW 11.5 mph - N/A   Clear